Location: Bluff Heights
(33.7692°N, 118.1592°W)
Time: 10:42:56
(UTC+00:00)

Tiros 1 despin weight - All Passes

Search period start: 03 August 2021 00:00
Search period end: 13 August 2021 00:00
Orbit: 593 x 642 km, 48.2° (Epoch: 02 August)

Date Brightness Start Highest point End Pass type
(mag) Time Alt. Az. Time Alt. Az. Time Alt. Az.
03 Aug - 00:22:32 10° NNW 00:25:25 16° NNE 00:28:17 10° NE daylight
03 Aug - 02:03:30 10° NW 02:07:57 42° NNE 02:12:20 10° ESE daylight
03 Aug - 03:45:15 10° WNW 03:49:25 33° SW 03:53:31 10° SSE visible
03 Aug - 17:50:58 10° SSE 17:53:11 13° SE 17:55:25 10° E daylight
03 Aug - 19:29:33 10° SW 19:34:12 88° NW 19:38:54 10° NE daylight
03 Aug - 21:12:35 10° WNW 21:16:15 22° NNW 21:19:56 10° NNE daylight
03 Aug - 22:56:52 10° NNW 22:59:11 13° N 23:01:32 10° NNE daylight
04 Aug - 00:38:37 10° NNW 00:42:11 21° NNE 00:45:43 10° ENE daylight
04 Aug - 02:19:38 10° NW 02:24:19 78° NE 02:28:56 10° SE daylight
04 Aug - 04:02:38 10° W 04:05:24 16° SW 04:08:07 10° SSW visible
04 Aug - 18:05:12 10° SSW 18:09:08 29° SE 18:13:09 10° ENE daylight
04 Aug - 19:46:05 10° WSW 19:50:32 46° NNW 19:55:04 10° NE daylight
04 Aug - 21:30:00 10° NW 21:33:00 17° NNW 21:36:00 10° NNE daylight
04 Aug - 23:13:31 10° NNW 23:16:05 14° N 23:18:38 10° NE daylight
05 Aug - 00:54:38 10° NW 00:58:48 31° NNE 01:02:56 10° E daylight
05 Aug - 02:35:59 10° WNW 02:40:33 52° SW 02:45:01 10° SSE daylight
05 Aug - 18:20:43 10° SW 18:25:14 61° SE 18:29:50 10° ENE daylight
05 Aug - 20:03:02 10° W 20:07:03 28° NNW 20:11:06 10° NE daylight
05 Aug - 21:47:22 10° NW 21:49:51 14° N 21:52:18 10° NNE daylight
05 Aug - 23:29:45 10° NNW 23:32:54 17° NNE 23:36:03 10° ENE daylight
06 Aug - 01:10:41 10° NW 01:15:17 53° NE 01:19:49 10° ESE daylight
06 Aug - 02:52:48 10° WNW 02:56:36 25° SW 03:00:20 10° S daylight
06 Aug - 16:57:12 10° S 17:00:19 18° SE 17:03:29 10° E daylight
06 Aug - 18:36:54 10° WSW 18:41:29 67° NW 18:46:08 10° NE daylight
06 Aug - 20:20:19 10° WNW 20:23:42 19° NNW 20:27:07 10° NNE daylight
06 Aug - 22:04:21 10° NNW 22:06:43 14° N 22:09:05 10° NNE daylight
06 Aug - 23:45:47 10° NNW 23:49:37 24° NNE 23:53:25 10° ENE daylight
07 Aug - 01:26:53 10° NW 01:31:35 81° SW 01:36:13 10° SE daylight
07 Aug - 03:11:09 10° WSW 03:12:32 11° SW 03:13:54 10° SW visible
07 Aug - 17:12:06 10° SSW 17:16:20 38° SE 17:20:39 10° ENE daylight
07 Aug - 18:53:36 10° W 18:57:53 37° NNW 19:02:14 10° NE daylight
07 Aug - 20:37:45 10° NW 20:40:30 15° N 20:43:14 10° NNE daylight
07 Aug - 22:20:49 10° NNW 22:23:35 15° N 22:26:22 10° NE daylight
08 Aug - 00:01:48 10° NW 00:06:11 38° NNE 00:10:32 10° E daylight
08 Aug - 01:43:24 10° WNW 01:47:44 38° SW 01:52:02 10° SSE daylight
08 Aug - 15:50:16 10° SE 15:51:33 11° SE 15:52:51 10° ESE daylight
08 Aug - 17:27:55 10° SW 17:32:29 82° SE 17:37:08 10° NE daylight
08 Aug - 19:10:43 10° WNW 19:14:28 24° NNW 19:18:15 10° NNE daylight
08 Aug - 20:55:01 10° NNW 20:57:21 14° N 20:59:42 10° NNE daylight
08 Aug - 22:36:56 10° NNW 22:40:22 20° NNE 22:43:48 10° ENE daylight
09 Aug - 00:17:54 10° NW 00:22:35 68° NE 00:27:13 10° ESE daylight
09 Aug - 02:00:33 10° W 02:03:45 18° SW 02:06:56 10° S daylight
09 Aug - 16:03:49 10° S 16:07:29 25° SE 16:11:13 10° ENE daylight
09 Aug - 17:44:20 10° WSW 17:48:47 52° NNW 17:53:20 10° NE daylight
09 Aug - 19:28:05 10° WNW 19:31:11 17° NNW 19:34:17 10° NNE daylight
09 Aug - 21:11:47 10° NNW 21:14:14 14° N 21:16:43 10° NE daylight
09 Aug - 22:52:56 10° NW 22:57:01 28° NNE 23:01:05 10° E daylight
10 Aug - 00:34:12 10° WNW 00:38:50 60° SW 00:43:24 10° SE daylight
10 Aug - 16:19:08 10° SSW 16:23:33 52° SE 16:28:02 10° ENE daylight
10 Aug - 18:01:12 10° W 18:05:16 30° NNW 18:09:24 10° NE daylight
10 Aug - 19:45:29 10° NW 19:48:00 14° N 19:50:31 10° NNE daylight
10 Aug - 21:28:03 10° NNW 21:31:05 17° NNE 21:34:06 10° NE daylight
10 Aug - 23:08:59 10° NW 23:13:31 47° NNE 23:18:02 10° ESE daylight
11 Aug - 00:50:54 10° WNW 00:54:55 29° SW 00:58:55 10° SSE daylight
11 Aug - 14:56:01 10° SSE 14:58:41 15° SE 15:01:23 10° E daylight
11 Aug - 16:35:13 10° WSW 16:39:45 77° NW 16:44:24 10° NE daylight
11 Aug - 18:18:26 10° WNW 18:21:54 20° NNW 18:25:24 10° NNE daylight
11 Aug - 20:02:35 10° NNW 20:04:53 13° N 20:07:11 10° NNE daylight
11 Aug - 21:44:06 10° NNW 21:47:49 22° NNE 21:51:30 10° ENE daylight
11 Aug - 23:25:09 10° NW 23:29:51 89° NE 23:34:32 10° SE daylight
12 Aug - 01:08:38 10° W 01:10:53 13° SW 01:13:08 10° SSW daylight
12 Aug - 15:10:38 10° SSW 15:14:40 33° SE 15:18:47 10° ENE daylight
12 Aug - 16:51:50 10° WSW 16:56:08 41° NNW 17:00:31 10° NE daylight
12 Aug - 18:35:52 10° NW 18:38:40 16° NNW 18:41:29 10° NNE daylight
12 Aug - 20:19:06 10° NNW 20:21:45 15° N 20:24:24 10° NE daylight
12 Aug - 22:00:07 10° NW 22:04:24 34° NNE 22:08:40 10° E daylight
12 Aug - 23:41:35 10° WNW 23:46:02 45° SW 23:50:29 10° SSE daylight
